Location: Kielce
(50.8833°N, 20.6167°E)
Time: 21:17:12
(UTC+02:00)

SR - Pass Details

Date: 24 April 2021
Orbit: 573 x 882 km, 66.7° (Epoch: 09 May)

Event Time Altitude Azimuth Distance (km) Brightness Sun altitude
Rises 15:34:10 0° 321° (NW) 3,481 ? 37.8°
Reaches altitude 10° 15:36:43 10° 319° (NW) 2,522 ? 37.4°
Maximum altitude 15:42:33 69° 238° (WSW) 896 ? 36.6°
Drops below altitude 10° 15:47:58 10° 156° (SSE) 2,356 ? 35.9°
Sets 15:50:18 0° 154° (SSE) 3,236 ? 35.5°
